Wind_Speed
31 29 27 23 21 20 19 18 17 18 20 21 20 25 29 30 31 30 32 32 31 32 33 32 37 39 43 44 43 48 48 41 39 42 41 40 40 40 40 36 24 32 37 36 34 35 35 32 35 36 38 26 30 27
37 33 31 28 24 22 21 19 18 18 20 20 19 23 27 30 29 29 30 31 30 31 31 32 34 35 39 42 40 47 46 42 40 40 43 41 41 38 37 33 34 28 33 31 35 31 35 41 38 39 39 30 29 30
40 38 32 30 27 23 24 20 19 18 19 20 19 21 24 28 28 28 28 28 29 29 30 31 32 32 35 38 44 46 47 47 45 43 42 41 43 40 41 34 27 32 38 26 25 27 37 43 41 40 38 34 33 33
40 39 34 32 29 25 24 23 20 18 18 19 18 21 23 26 27 27 26 26 26 26 27 30 30 32 33 35 38 44 47 44 41 37 39 40 38 41 33 28 32 45 43 40 39 37 33 39 42 36 36 35 33 33
37 39 35 32 29 25 24 23 22 19 18 19 18 20 22 25 26 26 25 24 23 23 23 25 24 28 31 33 35 39 43 43 43 42 44 42 41 46 44 47 39 26 32 34 31 38 47 36 26 35 39 36 35 35
35 39 37 34 30 27 24 23 23 20 18 18 18 19 22 24 26 27 25 23 21 20 20 21 21 22 27 30 32 35 36 38 42 42 44 44 44 47 44 41 42 48 46 46 42 47 38 44 38 39 42 39 39 39
39 39 39 36 32 29 26 24 25 22 19 18 18 19 23 24 26 26 23 23 20 18 18 17 18 18 22 26 28 30 31 33 37 40 42 44 47 48 46 44 46 49 48 46 45 44 45 47 48 42 41 41 42 42
48 45 43 40 37 33 28 27 27 24 20 18 18 18 23 24 27 24 23 22 20 19 16 14 14 14 15 20 23 26 28 30 33 36 39 41 43 47 44 43 47 48 50 48 47 47 47 48 46 39 37 48 46 45
46 44 44 42 38 33 29 30 29 25 22 19 19 19 23 24 27 24 24 22 21 18 16 14 10 13 13 13 14 18 22 26 30 31 34 38 40 43 43 42 41 48 48 49 46 47 46 48 48 46 45 21 28 43
43 38 31 32 32 31 32 33 31 26 21 20 20 20 23 25 27 24 23 23 21 18 15 14 12 6 11 16 10 14 15 17 19 22 27 31 32 35 36 38 38 44 47 44 42 43 47 48 49 47 42 40 54 55
38 36 31 32 33 34 35 34 30 25 22 23 22 23 23 27 28 24 24 23 21 18 15 14 15 16 14 16 15 15 12 12 14 17 17 19 18 22 23 31 31 32 38 40 43 45 47 48 49 45 38 41 24 32
40 35 38 30 34 35 36 33 30 23 19 20 21 23 24 29 28 24 23 23 21 20 17 15 13 15 17 16 15 14 14 15 12 14 13 17 21 22 24 26 24 28 30 32 33 34 36 40 45 48 47 52 47 33
37 35 41 40 27 35 36 32 30 24 24 24 24 26 26 30 27 23 22 21 20 18 18 16 14 14 16 16 17 15 14 13 14 16 18 22 21 21 21 23 25 25 27 29 30 32 34 36 38 42 43 47 34 46
29 31 36 31 30 27 35 33 28 24 25 25 25 25 25 27 25 23 23 22 20 19 17 15 15 13 14 16 15 13 14 12 12 12 17 16 19 24 24 25 25 24 26 27 29 32 35 37 37 39 43 42 44 48
33 29 32 33 32 29 35 32 25 25 27 27 27 25 27 28 25 22 20 21 20 18 16 15 15 14 13 13 12 11 11 12 10 12 14 16 18 16 18 21 23 25 25 27 29 31 31 33 37 37 35 40 43 41
33 29 28 27 29 31 34 28 27 29 27 28 28 29 28 24 21 21 19 19 18 18 15 15 15 14 14 14 13 15 11 13 13 13 13 14 17 20 20 25 28 26 26 23 22 25 28 26 24 22 26 32 28 37
30 32 28 28 32 34 30 30 30 28 27 29 27 27 24 23 21 18 19 18 16 18 17 14 14 16 13 13 13 15 13 11 10 15 15 17 19 18 20 18 19 17 15 16 17 19 24 21 25 28 31 38 35 37
31 31 31 31 31 31 30 31 28 28 29 28 27 27 26 22 22 20 19 17 15 16 13 12 12 13 14 11 11 12 8 8 12 13 9 10 9 6 8 10 6 7 8 9 8 6 11 15 18 17 13 8 14 31
28 27 29 31 30 30 31 28 31 29 27 26 25 24 23 21 22 17 19 17 15 14 13 12 9 10 11 10 10 7 6 9 6 3 4 8 3 1 0 5 6 4 4 3 1 1 5 11 12 14 15 15 19 20
31 32 33 33 31 29 30 32 30 25 24 23 25 25 22 20 19 14 13 12 12 12 11 11 10 10 9 9 6 5 6 4 4 3 2 5 5 6 9 11 9 6 4 3 4 4 6 10 14 15 16 15 14 17
34 32 29 31 31 33 31 31 31 27 22 19 22 21 16 17 16 15 14 14 11 9 10 10 11 11 9 6 3 3 2 4 4 5 9 11 13 14 11 10 10 7 5 4 3 2 4 6 9 12 15 13 14 10
31 29 30 29 26 27 29 27 26 23 23 21 19 19 18 17 16 15 15 11 10 10 11 12 12 11 7 2 2 6 4 6 9 7 10 10 10 8 7 4 9 6 12 13 11 14 9 10 9 8 7 7 9 13
28 28 26 26 26 26 24 24 22 21 21 20 20 19 17 16 16 15 11 11 12 11 13 13 12 8 3 2 3 2 5 7 5 10 7 6 4 7 7 1 1 3 5 3 3 4 5 5 4 4 6 3 3 3
25 24 23 24 24 24 24 22 22 22 21 19 18 17 17 16 13 11 11 13 12 14 14 13 9 5 5 5 4 6 17 12 11 10 8 6 4 3 4 6 8 11 14 15 14 12 10 8 8 8 8 8 9 10
23 22 22 22 22 21 21 20 19 17 17 17 17 15 13 12 11 13 14 14 16 16 13 9 5 7 5 6 9 13 11 6 5 6 6 6 7 9 12 14 13 12 14 13 13 12 11 10 9 7 7 6 6 6
21 21 21 21 19 18 17 18 18 17 15 13 13 17 17 15 14 13 14 14 13 11 10 8 10 13 15 18 18 13 10 14 16 15 14 13 12 11 9 9 8 6 7 7 6 5 4 3 2 1 0 2 6 7
18 18 17 16 16 17 17 15 14 15 16 19 20 19 18 17 15 13 11 13 18 23 23 21 21 21 19 17 16 16 14 12 12 11 11 9 7 6 5 3 3 2 2 2 3 4 5 5 4 2 4 7 7 4
16 15 15 14 12 13 15 17 18 17 18 18 18 17 15 14 18 20 19 21 25 26 25 24 23 22 21 19 17 15 13 11 9 7 5 4 2 1 1 3 3 5 6 6 8 8 6 5 4 4 7 9 7 6
11 12 13 15 17 16 15 15 17 19 19 18 17 18 20 25 23 22 26 24 23 23 23 22 20 17 16 14 12 10 8 6 5 2 1 1 3 4 6 7 8 9 10 10 10 9 8 7 7 7 9 12 11 11
19 19 18 17 16 17 19 19 20 21 20 18 18 19 19 21 20 21 22 21 21 18 17 16 16 14 13 10 9 6 4 2 1 3 5 6 7 8 9 11 12 13 13 12 11 10 10 10 9 9 10 11 13 14
20 20 20 21 20 19 17 17 19 19 19 17 16 18 18 15 17 20 21 19 16 15 13 12 11 8 6 4 2 1 2 3 5 6 8 10 11 12 13 14 15 15 15 13 12 12 11 10 10 10 11 12 13 15
20 20 19 18 19 20 20 19 18 18 19 20 21 23 22 20 18 16 14 13 12 11 10 8 6 4 2 2 3 4 5 6 7 7 8 10 9 8 8 9 9 9 9 10 10 10 10 10 10 12 14 15 17 18
20 22 23 20 19 19 18 18 18 19 19 19 19 18 17 14 12 10 9 8 7 6 5 4 3 4 5 6 7 8 8 8 8 8 9 9 9 8 8 7 6 5 4 4 5 6 8 10 11 13 15 16 17 17
Wind_Direction
256 252 258 268 274 287 280 269 273 276 268 261 261 242 230 223 224 227 227 226 226 229 232 230 230 229 227 229 231 233 233 229 225 227 228 228 231 231 234 233 236 252 243 244 240 242 242 240 240 239 241 248 253 259
252 252 253 259 267 282 276 270 271 274 268 264 259 244 233 223 219 223 226 225 226 227 231 231 230 230 229 228 234 236 239 235 229 227 228 228 229 228 231 233 228 225 247 248 243 247 243 244 245 248 253 258 258 257
248 248 248 253 260 273 275 267 268 270 265 261 257 244 231 224 217 218 222 225 226 226 230 232 233 234 232 229 230 234 233 231 228 228 234 232 229 226 228 222 216 227 235 239 245 244 247 250 246 249 256 256 256 258
244 243 245 248 255 262 271 266 265 264 260 258 254 242 229 224 215 213 217 221 223 225 229 230 233 235 237 234 232 232 234 233 235 235 233 229 225 225 224 230 217 231 237 243 244 249 244 246 254 254 257 258 258 257
241 239 241 244 249 255 262 263 262 260 256 253 251 237 224 221 212 209 212 216 218 221 230 235 232 235 237 237 234 233 232 230 231 229 229 229 229 232 229 227 222 232 221 225 219 237 247 250 224 253 256 257 259 259
242 238 240 243 247 249 257 260 257 256 250 249 244 233 220 217 209 205 207 211 213 217 225 235 235 235 235 236 236 235 233 229 229 229 230 230 230 233 231 231 227 229 235 235 240 241 257 250 257 256 258 260 262 261
247 242 242 243 245 247 254 256 252 249 242 244 238 230 216 214 207 203 201 206 209 211 219 232 237 233 234 233 232 233 232 229 227 227 229 231 233 233 234 232 233 236 240 244 245 246 249 260 261 261 262 263 262 262
247 245 244 243 244 246 250 250 244 240 236 239 231 225 210 210 205 201 200 203 205 209 216 228 243 237 245 233 230 229 227 224 224 223 225 228 232 236 236 234 240 240 243 241 243 243 245 248 256 257 264 260 257 261
248 246 244 244 243 243 242 236 233 231 229 233 225 219 206 206 202 200 198 201 203 206 212 219 209 211 242 227 224 226 228 226 223 223 224 227 229 236 236 235 236 240 243 246 246 250 251 252 254 252 244 262 260 263
246 238 232 231 229 228 225 223 222 222 225 223 217 210 203 202 200 200 198 199 202 203 207 211 198 200 195 184 178 213 215 217 220 224 227 230 232 237 239 239 236 241 245 246 248 249 248 248 249 249 252 264 266 262
236 233 228 219 213 213 213 212 214 215 217 211 209 203 200 198 199 199 199 200 200 201 203 209 204 205 200 198 198 216 219 210 215 222 223 226 227 228 232 239 239 237 242 246 247 247 247 248 251 249 242 225 252 257
227 223 217 206 205 205 203 204 207 214 212 206 203 200 199 196 198 200 199 200 202 202 204 210 208 207 212 209 215 196 206 224 221 229 209 242 230 241 245 247 242 243 246 248 249 248 247 245 244 244 240 236 262 261
213 212 211 210 204 196 194 196 202 207 201 200 198 196 196 193 196 198 198 201 205 203 207 210 214 215 213 214 217 227 226 228 234 247 246 243 247 247 233 249 251 248 249 249 250 255 254 250 247 246 242 226 240 244
186 191 198 196 190 185 187 192 200 200 195 195 194 193 192 188 195 195 194 203 203 206 209 214 216 216 217 219 220 228 234 242 245 244 244 246 252 246 249 252 251 252 253 255 257 257 259 256 252 249 247 242 242 241
169 171 179 179 183 185 186 186 193 191 192 190 187 185 182 190 193 191 196 198 203 208 211 211 216 216 218 223 229 236 236 239 235 247 248 239 249 254 255 260 261 261 265 270 265 265 267 259 254 252 253 245 238 238
164 162 167 173 174 183 169 179 185 184 187 185 183 182 182 180 179 188 190 195 204 207 212 214 216 218 216 226 224 231 228 234 239 245 253 261 269 269 272 272 269 268 271 267 255 260 259 255 252 252 247 244 227 231
154 157 165 170 172 165 167 174 176 178 180 173 175 178 176 180 179 182 184 194 198 202 210 211 215 218 220 213 217 215 219 230 246 258 275 273 278 273 276 282 278 257 252 257 266 282 250 245 230 226 228 194 223 217
148 149 150 157 159 162 165 166 169 168 161 165 169 174 175 169 174 184 190 195 198 205 207 213 216 210 205 215 216 206 218 240 263 282 264 272 267 280 293 301 225 209 228 262 307 289 251 247 229 216 215 206 193 220
143 146 149 150 152 155 155 159 156 154 159 164 167 167 168 171 178 183 191 192 187 194 200 199 205 214 215 212 203 216 255 276 292 256 286 306 240 273 359 135 97 155 204 215 263 170 201 215 217 206 205 202 198 209
137 138 140 143 148 150 152 152 151 157 162 163 165 164 170 182 185 175 174 177 183 188 198 212 212 207 191 185 198 237 273 279 262 270 318 40 65 104 114 122 104 87 73 63 110 137 150 150 150 161 172 175 186 195
131 135 134 138 143 145 154 157 158 155 159 159 173 174 170 172 172 166 173 174 177 186 181 176 164 166 170 183 228 282 254 290 329 131 102 96 101 103 100 81 70 60 79 46 44 156 189 195 184 175 173 176 183 205
132 132 134 137 143 146 147 154 154 156 156 157 161 162 164 166 165 166 163 173 179 170 162 156 154 161 161 167 264 101 146 115 123 117 130 122 114 88 62 66 12 36 42 108 73 101 98 128 152 157 183 191 203 225
130 132 133 134 133 135 140 144 145 148 151 155 156 159 160 162 161 162 169 172 170 164 156 156 161 153 164 157 115 93 163 135 123 147 143 133 108 120 87 84 353 353 342 355 110 141 113 118 125 135 165 187 191 215
123 122 124 128 131 135 138 142 145 148 151 154 156 158 158 162 166 178 177 170 169 160 159 161 164 180 168 144 122 104 127 122 119 117 121 127 134 95 42 52 65 78 87 91 95 100 106 109 108 105 107 112 117 125
119 121 125 129 132 135 138 140 141 144 147 146 150 159 169 173 171 164 165 162 159 157 162 173 200 175 186 172 147 143 138 132 125 127 131 121 103 101 101 94 89 90 90 87 88 91 95 101 106 111 116 120 128 133
117 122 125 128 130 131 134 136 137 138 147 157 154 146 145 143 145 150 148 146 149 165 188 187 155 138 136 138 139 134 124 115 101 104 105 107 109 107 99 99 97 83 74 68 63 66 66 48 19 348 209 149 142 138
116 119 123 125 125 127 130 134 138 136 132 133 134 135 135 136 134 127 132 136 132 128 126 126 125 125 128 132 129 124 121 120 120 122 123 124 117 108 98 80 55 32 39 359 336 328 325 321 307 248 193 177 177 195
116 119 120 124 127 132 133 133 133 135 141 142 137 132 131 141 138 126 129 126 122 122 119 118 119 120 121 123 126 128 127 125 121 113 110 100 88 59 310 303 305 303 307 309 312 307 297 284 259 237 216 209 227 249
118 121 121 119 123 127 129 133 140 142 145 145 138 136 136 138 135 127 127 123 125 126 123 122 120 120 120 123 123 120 120 120 118 118 85 330 321 315 309 305 303 301 300 298 294 284 277 271 269 261 242 235 249 267
114 114 113 113 115 115 117 121 135 140 135 134 136 140 136 135 131 133 136 131 127 125 126 126 126 127 126 125 123 126 128 138 278 299 295 291 288 289 287 288 288 288 287 284 276 269 268 268 269 265 260 261 269 278
115 116 115 113 116 118 114 120 130 133 134 134 137 140 140 138 136 136 132 131 133 136 138 139 138 137 137 138 151 231 295 304 303 298 298 297 295 293 293 292 290 285 280 274 268 265 263 263 264 266 270 274 279 284
114 115 114 114 116 116 114 118 123 128 130 134 134 131 129 129 130 134 140 145 148 152 158 163 171 182 207 283 297 292 287 288 294 299 307 307 305 309 316 316 310 298 284 273 271 269 268 268 271 276 281 286 289 293
118 116 117 118 117 119 119 120 126 129 129 133 137 138 136 136 137 143 148 157 171 187 205 222 253 281 287 282 277 280 287 294 299 307 313 311 310 316 322 328 334 334 319 288 269 266 269 275 282 288 290 292 295 301
Height
5677 5679 5680 5681 5681 5681 5680 5679 5679 5679 5678 5678 5678 5680 5683 5687 5691 5697 5701 5706 5710 5714 5719 5724 5727 5732 5738 5743 5749 5751 5757 5766 5774 5778 5783 5789 5794 5799 5804 5809 5813 5813 5818 5821 5826 5827 5830 5835 5835 5836 5835 5841 5841 5842
5667 5669 5671 5673 5674 5674 5673 5673 5673 5672 5672 5672 5672 5673 5675 5679 5684 5689 5695 5699 5703 5707 5713 5715 5719 5724 5729 5736 5741 5745 5751 5759 5764 5770 5775 5780 5785 5791 5796 5800 5806 5808 5809 5813 5817 5821 5821 5819 5824 5827 5828 5835 5834 5837
5654 5658 5661 5663 5665 5666 5667 5666 5666 5666 5665 5665 5666 5667 5669 5673 5677 5682 5688 5693 5697 5701 5704 5708 5712 5716 5721 5726 5730 5736 5740 5747 5752 5759 5766 5774 5778 5783 5785 5792 5796 5798 5802 5805 5810 5810 5808 5810 5815 5818 5821 5826 5827 5828
5641 5645 5650 5653 5656 5658 5659 5659 5660 5660 5659 5659 5660 5661 5663 5667 5671 5676 5682 5687 5691 5695 5697 5701 5705 5709 5713 5717 5722 5726 5732 5740 5747 5754 5758 5763 5768 5770 5778 5782 5783 5785 5793 5797 5802 5802 5804 5798 5804 5812 5814 5816 5818 5819
5629 5634 5639 5643 5647 5649 5651 5652 5653 5654 5653 5654 5655 5656 5658 5662 5667 5672 5677 5681 5685 5690 5692 5696 5699 5703 5705 5709 5713 5718 5723 5730 5735 5741 5746 5753 5758 5760 5768 5771 5779 5779 5784 5784 5788 5788 5790 5794 5771 5800 5803 5808 5809 5811
5618 5623 5628 5632 5636 5640 5643 5645 5646 5647 5648 5648 5650 5651 5654 5658 5663 5667 5673 5678 5681 5684 5687 5690 5694 5696 5699 5702 5705 5709 5714 5719 5725 5731 5737 5742 5746 5751 5760 5765 5772 5768 5773 5776 5782 5784 5783 5785 5791 5792 5794 5801 5801 5802
5607 5611 5616 5621 5626 5630 5634 5637 5639 5641 5643 5643 5645 5647 5650 5654 5659 5664 5670 5673 5677 5680 5684 5686 5688 5691 5693 5695 5699 5702 5706 5711 5715 5721 5727 5732 5736 5741 5747 5754 5755 5757 5761 5768 5773 5777 5779 5775 5779 5786 5789 5792 5792 5792
5591 5597 5603 5609 5615 5620 5625 5629 5631 5635 5637 5638 5640 5643 5646 5651 5656 5661 5665 5670 5674 5678 5681 5684 5686 5688 5689 5691 5693 5696 5700 5704 5708 5712 5718 5723 5727 5730 5737 5743 5744 5748 5751 5758 5761 5764 5768 5768 5773 5777 5780 5774 5778 5779
5575 5581 5588 5596 5603 5609 5616 5620 5624 5628 5631 5633 5636 5639 5643 5648 5653 5657 5662 5667 5671 5677 5679 5681 5684 5686 5686 5688 5691 5693 5696 5699 5702 5706 5710 5714 5718 5721 5726 5731 5734 5734 5741 5745 5751 5753 5759 5761 5763 5766 5769 5760 5768 5768
5562 5569 5576 5583 5590 5598 5605 5611 5617 5622 5626 5628 5632 5636 5640 5645 5650 5655 5660 5665 5669 5673 5676 5679 5682 5676 5682 5687 5687 5693 5693 5696 5699 5701 5703 5707 5712 5714 5717 5720 5724 5726 5729 5736 5741 5744 5745 5746 5750 5756 5761 5764 5759 5759
5549 5557 5566 5573 5581 5589 5597 5604 5611 5616 5620 5623 5628 5632 5637 5642 5648 5653 5657 5662 5667 5671 5674 5676 5679 5681 5683 5686 5688 5689 5691 5693 5695 5698 5701 5703 5705 5706 5708 5711 5715 5718 5720 5723 5726 5728 5731 5734 5737 5743 5749 5750 5740 5748
5537 5548 5557 5566 5574 5582 5590 5598 5605 5611 5617 5622 5626 5630 5635 5640 5646 5651 5656 5661 5665 5669 5672 5674 5677 5679 5681 5684 5685 5683 5687 5691 5693 5695 5697 5697 5699 5700 5702 5705 5707 5710 5711 5713 5715 5717 5718 5721 5724 5726 5734 5740 5738 5741
5529 5540 5549 5558 5567 5576 5585 5594 5601 5606 5611 5617 5622 5627 5633 5639 5645 5650 5655 5659 5663 5667 5670 5672 5674 5676 5678 5681 5683 5684 5686 5689 5689 5691 5693 5692 5694 5695 5696 5697 5699 5701 5703 5704 5706 5708 5710 5710 5712 5714 5720 5728 5725 5729
5524 5534 5544 5554 5564 5572 5581 5590 5598 5604 5610 5615 5620 5627 5632 5639 5644 5649 5653 5657 5661 5664 5667 5669 5671 5674 5676 5678 5680 5682 5684 5685 5685 5686 5686 5687 5687 5689 5690 5691 5692 5693 5694 5695 5696 5697 5698 5699 5701 5704 5707 5712 5716 5719
5523 5534 5543 5553 5561 5570 5579 5588 5595 5602 5608 5613 5620 5626 5632 5637 5642 5648 5652 5655 5659 5662 5665 5668 5670 5672 5674 5676 5678 5680 5681 5681 5682 5682 5682 5683 5683 5684 5684 5684 5685 5685 5685 5685 5685 5686 5686 5687 5688 5693 5699 5702 5707 5710
5527 5536 5545 5553 5561 5570 5579 5587 5594 5601 5607 5613 5620 5626 5632 5638 5643 5646 5650 5654 5657 5660 5664 5666 5668 5671 5672 5674 5676 5677 5679 5678 5678 5678 5679 5680 5679 5678 5677 5676 5675 5676 5676 5676 5676 5676 5676 5677 5680 5684 5686 5690 5696 5697
5532 5541 5548 5556 5564 5572 5580 5588 5595 5602 5608 5615 5621 5628 5633 5638 5642 5646 5650 5652 5656 5659 5661 5664 5666 5667 5670 5672 5673 5675 5675 5676 5676 5675 5676 5674 5672 5671 5670 5668 5665 5667 5669 5670 5671 5668 5667 5667 5667 5668 5669 5680 5681 5687
5540 5547 5553 5560 5568 5575 5583 5590 5598 5604 5610 5617 5623 5628 5632 5638 5642 5645 5648 5651 5655 5657 5660 5662 5664 5665 5667 5669 5671 5672 5673 5674 5672 5672 5670 5669 5668 5668 5666 5663 5661 5663 5666 5667 5666 5664 5662 5662 5663 5664 5668 5667 5670 5681
5548 5553 5560 5566 5574 5581 5588 5594 5601 5608 5614 5619 5624 5630 5635 5638 5641 5644 5648 5651 5653 5656 5658 5660 5663 5664 5666 5667 5669 5671 5671 5671 5670 5669 5669 5668 5667 5665 5663 5662 5663 5664 5665 5665 5665 5664 5664 5664 5665 5667 5670 5676 5680 5683
5556 5561 5567 5573 5579 5585 5594 5599 5605 5611 5618 5622 5626 5630 5634 5638 5641 5645 5648 5650 5653 5655 5657 5659 5661 5662 5664 5667 5669 5670 5670 5669 5668 5668 5668 5667 5665 5664 5664 5665 5665 5665 5665 5665 5666 5665 5666 5668 5669 5670 5673 5675 5678 5681
5565 5571 5576 5581 5587 5591 5597 5603 5608 5613 5619 5624 5628 5632 5635 5638 5641 5645 5648 5650 5653 5654 5656 5658 5660 5663 5665 5667 5668 5668 5668 5667 5666 5666 5668 5668 5668 5668 5668 5669 5668 5667 5666 5666 5666 5666 5666 5668 5669 5671 5673 5676 5678 5679
5577 5581 5586 5590 5595 5599 5604 5610 5614 5618 5623 5626 5631 5634 5637 5640 5643 5646 5649 5651 5653 5655 5656 5658 5661 5664 5666 5668 5667 5667 5668 5668 5669 5669 5670 5671 5672 5672 5672 5671 5671 5671 5670 5670 5669 5668 5668 5668 5670 5672 5674 5676 5677 5679
5588 5591 5594 5598 5602 5606 5612 5615 5619 5623 5626 5629 5633 5636 5639 5642 5645 5648 5650 5651 5654 5656 5658 5660 5663 5666 5667 5668 5668 5669 5669 5670 5671 5672 5673 5673 5674 5675 5674 5674 5674 5674 5673 5672 5672 5673 5673 5673 5674 5675 5676 5677 5678 5680
5597 5601 5604 5606 5609 5613 5617 5620 5623 5626 5630 5633 5636 5639 5641 5644 5646 5648 5650 5652 5655 5657 5660 5662 5665 5667 5668 5669 5670 5670 5672 5673 5674 5675 5675 5676 5676 5677 5677 5676 5676 5675 5675 5674 5674 5675 5675 5676 5676 5677 5678 5679 5680 5681
5608 5610 5612 5614 5616 5620 5622 5625 5628 5631 5634 5636 5639 5642 5644 5645 5647 5649 5651 5654 5656 5659 5662 5664 5666 5667 5669 5670 5672 5673 5675 5676 5676 5677 5678 5678 5678 5679 5679 5680 5680 5680 5680 5680 5680 5681 5681 5681 5682 5682 5682 5683 5684 5684
5615 5617 5619 5621 5623 5626 5628 5630 5633 5635 5637 5639 5641 5644 5646 5648 5651 5653 5655 5657 5659 5661 5663 5665 5666 5667 5669 5672 5675 5677 5678 5679 5679 5681 5682 5683 5683 5683 5683 5684 5684 5684 5684 5684 5684 5684 5684 5684 5684 5684 5684 5684 5685 5686
5622 5624 5625 5627 5629 5631 5633 5635 5637 5639 5640 5643 5646 5648 5650 5653 5655 5657 5658 5660 5661 5663 5665 5667 5669 5672 5675 5677 5679 5681 5683 5683 5683 5685 5686 5687 5687 5687 5687 5687 5687 5687 5687 5687 5686 5686 5685 5685 5685 5685 5685 5685 5686 5687
5629 5630 5631 5633 5634 5636 5638 5639 5642 5644 5646 5648 5650 5652 5655 5657 5660 5661 5663 5664 5667 5669 5671 5673 5675 5677 5679 5681 5683 5684 5686 5687 5687 5688 5689 5689 5689 5689 5689 5688 5688 5688 5687 5687 5686 5686 5685 5685 5684 5685 5685 5686 5686 5686
5633 5634 5636 5637 5639 5640 5642 5644 5646 5649 5651 5653 5655 5658 5660 5662 5664 5666 5669 5670 5673 5675 5677 5679 5681 5683 5685 5686 5687 5688 5689 5690 5690 5690 5690 5690 5690 5690 5689 5689 5688 5687 5686 5685 5685 5684 5684 5684 5684 5683 5684 5684 5684 5684
5640 5641 5643 5644 5645 5647 5649 5650 5652 5655 5657 5660 5662 5664 5666 5668 5670 5672 5675 5677 5679 5681 5683 5684 5685 5687 5688 5689 5690 5691 5691 5691 5691 5691 5691 5690 5690 5689 5688 5687 5686 5685 5684 5683 5682 5682 5682 5682 5681 5681 5681 5681 5681 5681
5646 5648 5650 5650 5652 5654 5656 5657 5659 5661 5663 5665 5667 5670 5672 5674 5676 5678 5680 5682 5683 5685 5686 5688 5688 5689 5690 5691 5691 5692 5692 5692 5691 5691 5690 5689 5688 5686 5685 5683 5682 5681 5680 5680 5679 5679 5679 5679 5679 5679 5679 5678 5678 5677
5654 5655 5656 5658 5659 5661 5662 5664 5666 5668 5669 5671 5673 5675 5678 5679 5681 5683 5684 5685 5686 5688 5689 5689 5690 5691 5691 5691 5691 5691 5691 5690 5690 5689 5688 5686 5685 5684 5682 5681 5679 5677 5676 5676 5676 5676 5676 5676 5676 5676 5675 5674 5673 5672
5661 5663 5664 5666 5667 5668 5670 5671 5672 5674 5676 5677 5679 5680 5682 5684 5685 5686 5687 5688 5689 5689 5690 5690 5690 5691 5691 5691 5690 5690 5689 5688 5687 5686 5685 5684 5683 5681 5680 5679 5677 5676 5675 5674 5674 5674 5674 5674 5673 5673 5672 5670 5669 5667